Regional Weather Roundup
Issued by NWS Kansas City/Pleasant Hill, MO

Current Version | Previous Version | Graphics & Text | Print | Product List | Glossary On
Versions: 1 2 3 4 5 6 7 8 9 10 11 12 13 14 15 16 17 18 19 20 21 22 23 24 25 26 27 28 29 30 31 32 33 34 35 36 37 38 39 40 41 42 43 44 45 46 47 48 49 50
000
ASUS43 KEAX 271705
RWREAX

WEATHER ROUNDUP FOR EASTERN KANSAS AND NORTHWEST MISSOURI
NATIONAL WEATHER SERVICE KANSAS CITY/PLEASANT HILL MO
1200 PM CDT TUE OCT 27 2020

KSZ040-057-103>105-MOZ028-029-037-043-271800-
...KANSAS CITY METROPOLITAN AREA...

CITY           SKY/WX    TMP DP  RH WIND       PRES   REMARKS
K.C. INTL      FRZ RAIN  31  25  78 N6        30.35S WCI  25
K.C. DOWNTOWN  FRZ RAIN  32  26  78 NW5       30.36F WCI  27
LEES SUMMIT    MIX PCPN  31  28  89 N8        30.35F WCI  23
OLATHE - IXD   FRZ RAIN  30  26  85 N7        30.35S FOG     WCI  23
OLATHE - OJC   FRZ RAIN  31  28  89 N7        30.34S WCI  24
LAWRENCE       FRZ RAIN  32  27  81 N6        30.37S WCI  26

$$

MOZ001>008-011>017-020>025-030>033-038>040-044>046-053-054-271800-
...NORTHERN AND CENTRAL MISSOURI...

CITY           SKY/WX    TMP DP  RH WIND       PRES   REMARKS
ST. JOSEPH     CLOUDY    33  22  63 CALM      30.37F
MOSBY          MIX PCPN  32  27  80 N5        30.38S WCI  27
HARRISONVILLE  CLOUDY    32  30  93 NE5       30.38R WCI  27
WHITEMAN AFB   DRIZZLE   33  30  92 N3        30.31
CLINTON        LGT RAIN  32  32 100 N5        30.33F WCI  27
SEDALIA        CLOUDY    33  29  85 N7        30.37R WCI  27
MARSHALL       CLOUDY    32  28  86 NW5       30.37S WCI  27
CHILLICOTHE      N/A     33  23  66 CALM      30.37S
MOBERLY        CLOUDY    36  28  75 CALM      30.35S
KIRKSVILLE     CLOUDY    37  24  59 NW5       30.33F WCI  33

$$

MOZ041-047>049-056>058-063>065-088>090-097-271800-
...EASTERN AND SOUTHERN MISSOURI...

CITY           SKY/WX    TMP DP  RH WIND       PRES   REMARKS
ST. LOUIS INTL LGT RAIN  39  36  89 N5        30.30F
SPIRIT OF STL  CLOUDY    39  35  86 N5        30.30S
COLUMBIA       CLOUDY    35  32  88 N7        30.32S WCI  29
JEFFERSON CITY CLOUDY    37  32  82 N7        30.33R WCI  32
MEXICO         CLOUDY    32  32 100 N5        30.33R WCI  27
HANNIBAL       CLOUDY    37  30  75 NW8       30.33F WCI  31
ROLLA          CLOUDY    37  34  89 NE6       30.28F WCI  32
LEBANON        LGT SNOW  34  32  93 NW3       30.32R
OSAGE BEACH      N/A     37  36  96 N3        30.34R
SPRINGFIELD    RAIN      34  33  96 N8        30.28F FOG     WCI  27
BRANSON        LGT RAIN  36  36 100 N9        30.27R VSB 1   WCI  29
JOPLIN         RAIN      34  32  92 NE7       30.30S FOG     WCI  28
WEST PLAINS    CLOUDY    40  37  89 NE9       30.23F FOG     WCI  34
SIKESTON       CLOUDY    46  46 100 NE6       30.22F

$$

IAZ060-094-KSZ022-034>040-054-083-096-NEZ052-066-093-271800-
...KANSAS...SOUTHEAST NEBRASKA AND IOWA...

CITY           SKY/WX    TMP DP  RH WIND       PRES   REMARKS
TOPEKA         FRZ RAIN  31  24  75 NE3       30.35F
MANHATTAN      PTSUNNY   33  21  61 CALM      30.34F
EMPORIA        FRZ RAIN  30  27  88 NE9       30.29F WCI  22
OTTAWA         FAIR      32  30  93 N8        30.34F FOG     WCI  25
CHANUTE        FRZ RAIN  32  29  88 NE10      30.30F FOG     WCI  24
SALINA         CLOUDY    31  22  69 N5        30.37R WCI  26
WICHITA        FRZ RAIN  29  25  85 N8        30.35R FOG     WCI  21
OMAHA          MOSUNNY   33  16  49 S10       30.33S WCI  25
LINCOLN        SUNNY     32  18  56 SW14      30.32F WCI  22
FALLS CITY     PTSUNNY   31  18  58 NW3       30.36F
LAMONI         PTSUNNY   32  16  51 CALM      30.33F
DES MOINES     MOSUNNY   34  17  50 SW7       30.31F WCI  28

$$





USA.gov is the U.S. government's official web portal to all federal, state and local government web resources and services.